Home   Weather   Bocholt   Past weeks

Flag for Germany Past Weather in Bocholt, North Rhine-Westphalia, Germany — Yesterday and Last 2 Weeks

Now
45 °F

Clear.


Feels Like: 40 °F
Forecast: 44 / 48 °F
Wind: 9 mph from Southwest

Location: Niederrhein

Current Time: Dec 10, 2016 at 9:59:53 am

Latest Report: Dec 10, 2016 at 9:20 am


Visibility: 10 mi

Pressure: 30.21 "Hg

Humidity: 93%

Dew Point: 43 °F

Location of BocholtLocation

Past Weather in Bocholt — Graph

°F

Bocholt Temperature Yesterday

Maximum temperature yesterday: 54 °F (at 2:50 pm)
Minimum temperature yesterday: 46 °F (at 8:20 am)
Average temperature yesterday: 49 °F

High & Low Weather Summary for the Past Weeks

 TemperatureHumidityPressure
High54 °F (Dec 9, 2:50 pm)100% (Nov 26, 4:50 am)30.60 "Hg (Nov 26, 4:50 am)
Low21 °F (Nov 30, 4:50 am)50% (Nov 25, 2:20 pm)30.09 "Hg (Nov 26, 1:20 pm)
Average37 °F89%30.33 "Hg
* Reported Nov 25 8:20 am — Dec 10 8:50 am, Bocholt, Weather by CustomWeather, © 2016

Note: Actual official high and low records may vary slightly from our data, if they occured in-between our weather recording intervals... More about our weather records

Advertising

Bocholt Weather History for the Previous 24 Hours

Scroll right to see more
 ConditionsComfort  
Time TempWeatherWind HumidityBarometerVisibility
8:50 am
Sat, Dec 10
45 °FClear.9 mph93%30.21 "Hg10 mi
8:20 am45 °FClear.9 mph93%30.21 "Hg10 mi
7:50 am45 °FClear.7 mph93%30.21 "Hg10 mi
7:20 am45 °FPassing clouds.7 mph93%30.21 "HgN/A
6:50 am43 °FClear.7 mph100%30.21 "Hg10 mi
6:20 am43 °FClear.8 mph100%30.21 "Hg10 mi
5:50 am43 °FClear.8 mph100%30.21 "Hg10 mi
5:20 am43 °FClear.7 mph100%30.21 "Hg10 mi
4:50 am43 °FClear.7 mph100%30.24 "Hg10 mi
11:50 pm
Fri, Dec 9
46 °FClear.9 mph93%30.30 "Hg10 mi
11:20 pm46 °FClear.9 mph93%30.30 "Hg10 mi
10:50 pm46 °FClear.9 mph93%30.30 "Hg10 mi
10:20 pm48 °FClear.9 mph94%30.30 "Hg10 mi
9:50 pm48 °FClear.8 mph87%30.30 "Hg10 mi
9:20 pm48 °FClear.9 mph87%30.30 "Hg10 mi
8:50 pm48 °FClear.7 mph87%30.30 "Hg10 mi
8:20 pm48 °FClear.8 mph87%30.30 "Hg10 mi
7:50 pm50 °FClear.9 mph82%30.30 "Hg10 mi
7:20 pm50 °FClear.8 mph82%30.30 "Hg10 mi
6:50 pm50 °FClear.8 mph82%30.33 "Hg10 mi
6:20 pm50 °FClear.7 mph82%30.33 "Hg10 mi
5:50 pm50 °FClear.8 mph82%30.33 "Hg10 mi
5:20 pm50 °FSunny.8 mph88%30.33 "Hg10 mi
4:50 pm52 °FSunny.7 mph88%30.33 "Hg10 mi
4:20 pm52 °FSunny.7 mph88%30.33 "Hg10 mi
3:50 pm54 °FPassing clouds.9 mph88%30.33 "HgN/A
3:20 pm54 °FScattered clouds.7 mph82%30.33 "HgN/A
2:50 pm54 °FScattered clouds.7 mph82%30.33 "HgN/A
2:20 pm52 °FScattered clouds.7 mph94%30.33 "HgN/A
1:50 pm52 °FScattered clouds.8 mph100%30.36 "Hg5 mi
1:20 pm50 °FFog.7 mph100%30.33 "Hg2 mi
12:50 pm50 °FFog.7 mph100%30.36 "Hg2 mi
12:20 pm50 °FFog.8 mph100%30.36 "Hg3 mi
11:50 am48 °FFog.8 mph100%30.36 "Hg2 mi
11:20 am48 °FPartly sunny.7 mph100%30.36 "Hg4 mi
10:50 am48 °FPartly sunny.7 mph100%30.36 "Hg4 mi
10:20 am46 °FFog.6 mph100%30.36 "Hg2 mi
9:50 am46 °FFog.7 mph100%30.36 "Hg2 mi
9:20 am46 °FFog.8 mph100%30.36 "Hg2 mi
Weather by CustomWeather, © 2016

See weather overviewHow to use our weather pages